SCR378 EGCC-EGHH

Flight info

Callsign SCR378
Flight time 0h 36m
Altitude 19000
Route SANBA N859 HON L8 BUGUP
Aircraft C25C/L-SDE2E3FGHRWXY/LB1

Departure

Time 2026-05-08 13:33
Airport Manchester Airport (EGCC)

Arrival

Time 2026-05-08 14:10
Airport Bournemouth Airport (EGHH)
Time Latitude Longitude Altitude Speed Heading
2026-05-08 13:17 53.35609 -2.28073 238 ft 0 kts 237°
2026-05-08 13:25 53.35609 -2.28074 238 ft 1 kts 237°
2026-05-08 13:25 53.35582 -2.28121 238 ft 9 kts 204°
2026-05-08 13:25 53.35565 -2.28130 238 ft 0 kts 191°
2026-05-08 13:29 53.35563 -2.28130 238 ft 1 kts 188°
2026-05-08 13:29 53.35526 -2.28138 238 ft 10 kts 174°
2026-05-08 13:29 53.35528 -2.28085 239 ft 7 kts 40°
2026-05-08 13:29 53.35573 -2.28013 241 ft 11 kts 54°
2026-05-08 13:30 53.35630 -2.27890 244 ft 16 kts 53°
2026-05-08 13:30 53.35706 -2.27730 248 ft 18 kts 52°
2026-05-08 13:30 53.35700 -2.27624 249 ft 11 kts 156°
2026-05-08 13:30 53.35639 -2.27551 250 ft 11 kts 141°
2026-05-08 13:31 53.35578 -2.27469 250 ft 9 kts 141°
2026-05-08 13:31 53.35568 -2.27455 250 ft 0 kts 142°
2026-05-08 13:31 53.35555 -2.27439 249 ft 7 kts 141°
2026-05-08 13:31 53.35491 -2.27352 249 ft 14 kts 141°
2026-05-08 13:32 53.35409 -2.27240 247 ft 16 kts 142°
2026-05-08 13:32 53.35290 -2.27204 241 ft 20 kts 190°
2026-05-08 13:32 53.35150 -2.27252 238 ft 21 kts 191°
2026-05-08 13:32 53.35008 -2.27310 235 ft 16 kts 229°
2026-05-08 13:33 53.34937 -2.27468 231 ft 36 kts 231°
2026-05-08 13:33 53.34541 -2.28299 233 ft 141 kts 231°
2026-05-08 13:33 53.33793 -2.29818 809 ft 192 kts 231°
2026-05-08 13:33 53.32951 -2.31691 1916 ft 202 kts 233°
2026-05-08 13:34 53.32151 -2.33790 2655 ft 233 kts 244°
2026-05-08 13:34 53.31775 -2.36616 3172 ft 264 kts 268°
2026-05-08 13:34 53.31734 -2.39698 4178 ft 265 kts 252°
2026-05-08 13:34 53.30766 -2.42217 5003 ft 272 kts 219°
2026-05-08 13:35 53.29063 -2.43894 5168 ft 286 kts 204°
2026-05-08 13:35 53.27203 -2.44548 5652 ft 266 kts 172°
2026-05-08 13:35 53.25518 -2.43424 6505 ft 263 kts 152°
2026-05-08 13:35 53.23894 -2.42107 7715 ft 254 kts 155°
2026-05-08 13:36 53.22296 -2.40814 8769 ft 257 kts 154°
2026-05-08 13:36 53.20697 -2.39412 9803 ft 262 kts 152°
2026-05-08 13:36 53.19078 -2.37947 10768 ft 266 kts 153°
2026-05-08 13:36 53.17431 -2.36486 11751 ft 271 kts 154°
2026-05-08 13:37 53.15745 -2.35006 12753 ft 276 kts 154°
2026-05-08 13:37 53.14026 -2.33504 13794 ft 282 kts 155°
2026-05-08 13:37 53.12296 -2.31993 14748 ft 286 kts 155°
2026-05-08 13:37 53.10510 -2.30437 15742 ft 291 kts 155°
2026-05-08 13:38 53.08702 -2.28862 16778 ft 296 kts 155°
2026-05-08 13:38 53.06861 -2.27260 17792 ft 301 kts 155°
2026-05-08 13:38 53.04988 -2.25631 18719 ft 306 kts 155°
2026-05-08 13:38 53.03036 -2.23935 19089 ft 330 kts 155°
2026-05-08 13:39 53.00908 -2.22094 19089 ft 358 kts 155°
2026-05-08 13:39 52.98628 -2.20125 19091 ft 379 kts 154°
2026-05-08 13:39 52.96264 -2.18083 19092 ft 390 kts 154°
2026-05-08 13:39 52.93848 -2.15993 19089 ft 391 kts 154°
2026-05-08 13:40 52.91436 -2.13902 19087 ft 391 kts 154°
2026-05-08 13:40 52.89029 -2.11815 19089 ft 391 kts 154°
2026-05-08 13:40 52.86621 -2.09732 19088 ft 390 kts 154°
2026-05-08 13:40 52.84213 -2.07651 19085 ft 390 kts 154°
2026-05-08 13:41 52.81804 -2.05575 19092 ft 390 kts 154°
2026-05-08 13:41 52.79397 -2.03505 19087 ft 390 kts 154°
2026-05-08 13:41 52.76992 -2.01441 19087 ft 390 kts 154°
2026-05-08 13:41 52.74578 -1.99372 19079 ft 390 kts 154°
2026-05-08 13:42 52.72174 -1.97314 19074 ft 389 kts 154°
2026-05-08 13:42 52.69766 -1.95257 19079 ft 389 kts 154°
2026-05-08 13:42 52.67351 -1.93196 19093 ft 390 kts 154°
2026-05-08 13:42 52.64942 -1.91143 19079 ft 390 kts 154°
2026-05-08 13:43 52.62564 -1.89117 19081 ft 390 kts 154°
2026-05-08 13:43 52.60155 -1.87069 19082 ft 390 kts 155°
2026-05-08 13:43 52.57748 -1.85025 19077 ft 389 kts 154°
2026-05-08 13:43 52.55334 -1.82977 19078 ft 389 kts 154°
2026-05-08 13:44 52.52926 -1.80936 19072 ft 389 kts 154°
2026-05-08 13:44 52.50516 -1.78896 19070 ft 389 kts 154°
2026-05-08 13:44 52.48109 -1.76861 19069 ft 389 kts 154°
2026-05-08 13:44 52.45703 -1.74829 19070 ft 389 kts 154°
2026-05-08 13:45 52.43295 -1.72799 19077 ft 389 kts 154°
2026-05-08 13:45 52.40922 -1.70799 19075 ft 389 kts 154°
2026-05-08 13:45 52.38518 -1.68774 19079 ft 389 kts 154°
2026-05-08 13:45 52.36095 -1.66834 19077 ft 387 kts 161°
2026-05-08 13:46 52.33470 -1.65964 19079 ft 384 kts 175°
2026-05-08 13:46 52.30814 -1.65663 19080 ft 383 kts 179°
2026-05-08 13:46 52.28150 -1.65520 19080 ft 383 kts 180°
2026-05-08 13:46 52.25482 -1.65383 19098 ft 383 kts 179°
2026-05-08 13:47 52.22818 -1.65105 19101 ft 383 kts 176°
2026-05-08 13:47 52.20163 -1.64760 19098 ft 383 kts 177°
2026-05-08 13:47 52.17501 -1.64466 19097 ft 383 kts 178°
2026-05-08 13:47 52.14836 -1.64196 19099 ft 383 kts 178°
2026-05-08 13:48 52.12176 -1.63936 19098 ft 383 kts 178°
2026-05-08 13:48 52.09515 -1.63678 19090 ft 382 kts 178°
2026-05-08 13:48 52.06886 -1.63422 18844 ft 384 kts 178°
2026-05-08 13:48 52.04205 -1.63157 18339 ft 378 kts 178°
2026-05-08 13:49 52.01636 -1.62895 17793 ft 371 kts 178°
2026-05-08 13:49 51.99085 -1.62655 17275 ft 365 kts 178°
2026-05-08 13:49 51.96566 -1.62432 16794 ft 358 kts 178°
2026-05-08 13:49 51.94087 -1.62220 16329 ft 353 kts 178°
2026-05-08 13:50 51.91650 -1.62013 15874 ft 349 kts 178°
2026-05-08 13:50 51.89237 -1.61808 15411 ft 345 kts 178°
2026-05-08 13:50 51.86906 -1.60964 14949 ft 347 kts 156°
2026-05-08 13:50 51.84808 -1.59010 14499 ft 346 kts 150°
2026-05-08 13:51 51.82779 -1.56943 14052 ft 345 kts 150°
2026-05-08 13:51 51.80744 -1.54912 13569 ft 343 kts 151°
2026-05-08 13:51 51.78728 -1.52953 13101 ft 341 kts 151°
2026-05-08 13:51 51.76696 -1.51004 12655 ft 338 kts 152°
2026-05-08 13:52 51.74680 -1.49084 12218 ft 336 kts 151°
2026-05-08 13:52 51.72669 -1.47175 11767 ft 334 kts 151°
2026-05-08 13:52 51.70668 -1.45276 11314 ft 333 kts 152°
2026-05-08 13:52 51.68645 -1.43501 11073 ft 325 kts 157°
2026-05-08 13:53 51.66586 -1.42203 11074 ft 311 kts 162°
2026-05-08 13:53 51.64568 -1.41107 11083 ft 301 kts 163°
2026-05-08 13:53 51.62606 -1.40081 11079 ft 293 kts 163°
2026-05-08 13:53 51.60700 -1.39019 11078 ft 286 kts 162°
2026-05-08 13:54 51.58845 -1.37937 11066 ft 281 kts 161°
2026-05-08 13:54 51.57035 -1.36835 11070 ft 276 kts 161°
2026-05-08 13:54 51.55253 -1.35769 11062 ft 272 kts 162°
2026-05-08 13:54 51.53492 -1.34724 11063 ft 268 kts 162°
2026-05-08 13:55 51.51748 -1.33696 11065 ft 265 kts 162°
2026-05-08 13:55 51.50025 -1.32684 11067 ft 262 kts 162°
2026-05-08 13:55 51.47196 -1.31029 11064 ft 259 kts 162°
2026-05-08 13:56 51.45558 -1.30078 11067 ft 257 kts 162°
2026-05-08 13:56 51.43880 -1.29097 11065 ft 256 kts 162°
2026-05-08 13:56 51.42212 -1.28124 11067 ft 254 kts 162°
2026-05-08 13:57 51.40554 -1.27157 11074 ft 253 kts 162°
2026-05-08 13:57 51.38897 -1.26193 11076 ft 252 kts 162°
2026-05-08 13:57 51.37250 -1.25233 11082 ft 252 kts 162°
2026-05-08 13:57 51.35604 -1.24273 11078 ft 251 kts 162°
2026-05-08 13:58 51.33950 -1.23349 10923 ft 256 kts 167°
2026-05-08 13:58 51.32158 -1.23265 10656 ft 262 kts 185°
2026-05-08 13:58 51.30941 -1.23403 10531 ft 266 kts 185°
2026-05-08 13:58 51.29083 -1.23603 10347 ft 270 kts 185°
2026-05-08 13:59 51.27192 -1.23769 10163 ft 273 kts 184°
2026-05-08 13:59 51.25288 -1.23926 10075 ft 272 kts 184°
2026-05-08 13:59 51.23413 -1.24074 10080 ft 268 kts 184°
2026-05-08 13:59 51.21562 -1.24217 10086 ft 265 kts 184°
2026-05-08 14:00 51.19756 -1.24366 10083 ft 262 kts 186°
2026-05-08 14:00 51.17970 -1.24871 10086 ft 259 kts 194°
2026-05-08 14:00 51.16237 -1.25635 10059 ft 258 kts 197°
2026-05-08 14:00 51.14522 -1.26459 10065 ft 256 kts 198°
2026-05-08 14:01 51.12821 -1.27287 10077 ft 256 kts 197°
2026-05-08 14:01 51.11099 -1.28024 10091 ft 256 kts 194°
2026-05-08 14:01 51.09367 -1.28691 10085 ft 255 kts 194°
2026-05-08 14:01 51.07645 -1.29389 10045 ft 258 kts 195°
2026-05-08 14:02 51.05878 -1.30152 9771 ft 269 kts 196°
2026-05-08 14:02 51.04034 -1.30956 9393 ft 279 kts 195°
2026-05-08 14:02 51.02125 -1.31768 8997 ft 288 kts 195°
2026-05-08 14:02 51.00167 -1.32589 8607 ft 294 kts 195°
2026-05-08 14:03 50.98174 -1.33416 8210 ft 298 kts 195°
2026-05-08 14:03 50.96193 -1.34315 7819 ft 300 kts 202°
2026-05-08 14:03 50.94613 -1.36311 7423 ft 290 kts 231°
2026-05-08 14:03 50.93469 -1.38834 7021 ft 269 kts 234°
2026-05-08 14:04 50.92463 -1.41175 6632 ft 247 kts 235°
2026-05-08 14:04 50.91516 -1.43348 6244 ft 232 kts 233°
2026-05-08 14:04 50.90583 -1.45369 5865 ft 223 kts 231°
2026-05-08 14:04 50.89674 -1.47303 5473 ft 216 kts 232°
2026-05-08 14:05 50.88798 -1.49198 5047 ft 211 kts 232°
2026-05-08 14:05 50.87947 -1.51061 4630 ft 207 kts 232°
2026-05-08 14:05 50.87107 -1.52897 4224 ft 205 kts 231°
2026-05-08 14:05 50.86278 -1.54711 3834 ft 203 kts 231°
2026-05-08 14:06 50.85456 -1.56512 3548 ft 202 kts 231°
2026-05-08 14:06 50.84626 -1.58325 3319 ft 205 kts 231°
2026-05-08 14:06 50.83788 -1.60154 3103 ft 205 kts 231°
2026-05-08 14:06 50.82964 -1.61948 3071 ft 197 kts 230°
2026-05-08 14:07 50.82177 -1.63651 2927 ft 196 kts 230°
2026-05-08 14:07 50.81389 -1.65473 2595 ft 208 kts 240°
2026-05-08 14:07 50.80819 -1.67664 2244 ft 217 kts 245°
2026-05-08 14:07 50.80324 -1.69921 2059 ft 214 kts 250°
2026-05-08 14:08 50.79957 -1.72208 1677 ft 219 kts 255°
2026-05-08 14:08 50.79643 -1.74477 1217 ft 199 kts 254°
2026-05-08 14:08 50.79350 -1.76417 874 ft 163 kts 254°
2026-05-08 14:08 50.79091 -1.78000 610 ft 140 kts 252°
2026-05-08 14:09 50.78837 -1.79366 500 ft 121 kts 249°
2026-05-08 14:09 50.78620 -1.80621 360 ft 119 kts 251°
2026-05-08 14:09 50.78398 -1.81900 171 ft 122 kts 249°
2026-05-08 14:09 50.78191 -1.83180 36 ft 112 kts 249°
2026-05-08 14:10 50.78109 -1.83663 36 ft 9 kts 336°
2026-05-08 14:10 50.78114 -1.83602 37 ft 9 kts 76°
2026-05-08 14:10 50.78138 -1.83466 37 ft 17 kts 77°
2026-05-08 14:10 50.78166 -1.83235 36 ft 25 kts 71°
2026-05-08 14:11 50.78225 -1.82946 34 ft 28 kts 74°
2026-05-08 14:11 50.78282 -1.82731 35 ft 16 kts 357°
2026-05-08 14:11 50.78363 -1.82846 34 ft 16 kts 304°
2026-05-08 14:11 50.78416 -1.82881 34 ft 8 kts 21°
2026-05-08 14:12 50.78442 -1.82847 34 ft 2 kts 32°
2026-05-08 14:12 50.78447 -1.82854 34 ft 0 kts 284°